Location: Clatteringshaws Loch
(55.0508°N, 4.2860°W)
Time: 00:10:48
(UTC+01:00)

Amateur Radio Satellites - All Passes

Search period start: 01 May 2016 23:40
Search period end: 02 May 2016 23:40
Location: Clatteringshaws Loch, 55.0508°N, 4.2860°W

Satellite Date Start Highest point End Downlink Frequencies (MHz)
Time Altitude Azimuth
DUCHIFAT 1 01 May 23:41:12 23:43:27 14° 86° (E) 23:45:42 145.980
POLYITAN 1 01 May 23:41:25 23:43:59 15° 87° (E) 23:46:33 437.675
BEESAT 3 01 May 23:44:06 23:47:06 20° 356° (N) 23:50:06 437.485
POPSAT HIP 1 01 May 23:44:21 23:47:01 16° 88° (E) 23:49:41 437.405
AISAT 01 May 23:46:44 23:51:13 89° 250° (WSW) 23:55:45 437.250
QB50P1 01 May 23:47:35 23:50:27 17° 88° (E) 23:53:18 145.935-145.965
BEESAT 2 01 May 23:48:15 23:51:22 21° 352° (N) 23:54:28 435.950
Cosmos 2504 01 May 23:58:45 00:04:00 21° 311° (NW) 00:09:17 435.465 / 435.565
SPROUT 01 May 23:58:52 00:03:03 50° 68° (ENE) 00:07:16 437.525
ESTCUBE 1 01 May 23:59:42 00:04:07 58° 258° (WSW) 00:08:35 437.505/2401.250
SWISSCUBE 02 May 00:04:23 00:05:24 11° 43° (NE) 00:06:24 437.505
O/OREOS (USA 219) 02 May 00:06:29 00:10:51 42° 49° (NE) 00:15:09 437.305
UNISAT 6 02 May 00:20:05 00:24:29 70° 289° (WNW) 00:28:47 437.425
HUMSAT D 02 May 00:20:33 00:21:54 11° 276° (W) 00:23:14 437.325/437.525
NANOSAT C BR1 02 May 00:22:37 00:26:28 32° 95° (E) 00:30:18 145.865
Cosmos 2499 02 May 00:22:52 00:27:11 17° 73° (ENE) 00:31:32 435.465 / 435.565
JAS-2 02 May 00:27:17 00:31:37 16° 77° (ENE) 00:36:00 435.910
CUBEBUG 1 02 May 00:28:01 00:32:13 43° 262° (W) 00:36:29 437.445
BUGSAT 1 02 May 00:28:28 00:31:39 20° 90° (E) 00:34:47 437.445
AIST 1 02 May 00:32:20 00:35:53 25° 87° (E) 00:39:28
BEESAT 02 May 00:35:32 00:38:22 16° 50° (NE) 00:41:13 436.000
TIGRISAT 02 May 00:38:13 00:42:31 52° 292° (WNW) 00:46:41 435.000
TISAT 1 02 May 00:38:16 00:42:19 43° 66° (ENE) 00:46:23 437.305
CUSAT 1 02 May 00:47:41 00:52:58 25° 56° (NE) 00:59:01 437.405
VELOX 1 02 May 00:52:14 00:56:02 27° 266° (W) 00:59:53 145.980
DX 1 02 May 00:53:57 00:57:43 28° 266° (W) 01:01:30 434.975-435.025
PCSat 02 May 00:58:55 01:04:24 82° 230° (SW) 01:09:50 145.827
ANTELSAT 02 May 01:02:44 01:06:39 32° 298° (WNW) 01:10:30 437.575/2403.000
UKube-1 02 May 01:03:04 01:06:45 27° 266° (W) 01:10:28 .
AIST 2 02 May 01:07:53 01:11:20 24° 345° (NNW) 01:14:47 435.215
GONETS M04 02 May 01:12:20 01:20:59 62° 92° (E) 01:29:38
50 SAT 02 May 01:13:23 01:15:00 12° 273° (W) 01:16:38 437.505
QB50P2 02 May 01:13:58 01:18:15 82° 289° (WNW) 01:22:30 145.880/145.840
DUCHIFAT 1 02 May 01:15:32 01:19:49 89° 277° (W) 01:24:02 145.980
POLYITAN 1 02 May 01:16:07 01:20:24 81° 289° (WNW) 01:24:38 437.675
DANDE 02 May 01:18:07 01:22:19 20° 56° (NE) 01:27:16 436.750
POPSAT HIP 1 02 May 01:19:05 01:23:23 78° 288° (WNW) 01:27:37 437.405
RS-15 02 May 01:19:52 01:31:29 67° 332° (NNW) 01:43:43 29.354- 29.394
QB50P1 02 May 01:22:29 01:26:46 73° 288° (WNW) 01:30:58 145.935-145.965
BEESAT 3 02 May 01:22:32 01:25:55 26° 20° (NNE) 01:29:19 437.485
AISAT 02 May 01:25:50 01:28:24 15° 274° (W) 01:30:58 437.250
BEESAT 2 02 May 01:27:04 01:30:23 24° 16° (NNE) 01:33:41 435.950
ITUPSAT 1 02 May 01:27:43 01:32:00 34° 61° (ENE) 01:36:17 437.325
SPROUT 02 May 01:35:40 01:39:16 25° 268° (W) 01:42:53 437.525
SWISSCUBE 02 May 01:37:37 01:42:06 43° 64° (ENE) 01:46:36 437.505
O/OREOS (USA 219) 02 May 01:46:03 01:50:13 36° 250° (WSW) 01:54:21 437.305
UNISAT 6 02 May 01:58:10 02:00:28 14° 310° (NW) 02:02:43 437.425
NANOSAT C BR1 02 May 01:58:21 02:02:18 37° 295° (WNW) 02:06:11 145.865
BUGSAT 1 02 May 02:03:13 02:07:26 61° 290° (WNW) 02:11:33 437.445
AIST 1 02 May 02:09:04 02:13:16 47° 288° (WNW) 02:17:31
BEESAT 02 May 02:10:41 02:15:25 71° 71° (ENE) 02:20:11 436.000
JAS-2 02 May 02:10:43 02:18:15 57° 99° (E) 02:25:58 435.910
Cosmos 2499 02 May 02:11:57 02:18:58 73° 97° (E) 02:26:08 435.465 / 435.565
TISAT 1 02 May 02:14:26 02:18:08 28° 266° (W) 02:21:52 437.305
TIGRISAT 02 May 02:17:02 02:18:16 11° 313° (NW) 02:19:28 435.000
Gurwin Techsat 1B 02 May 02:20:27 02:24:15 19° 87° (E) 02:28:02 435.225
CUSAT 1 02 May 02:29:19 02:35:56 81° 75° (ENE) 02:43:50 437.405
Oscar 19 02 May 02:35:55 02:41:00 48° 100° (E) 02:46:01 437.125/150
PCSat 02 May 02:43:17 02:47:04 19° 252° (WSW) 02:50:50 145.827
AIST 2 02 May 02:47:41 02:51:00 22° 9° (N) 02:54:19 435.215
QB50P2 02 May 02:50:56 02:53:27 15° 307° (NW) 02:55:58 145.880/145.840
DUCHIFAT 1 02 May 02:52:17 02:54:57 16° 306° (NW) 02:57:36 145.980
POLYITAN 1 02 May 02:53:06 02:55:35 15° 307° (NW) 02:58:03 437.675
MOZHAYETS 4 02 May 02:54:12 02:57:49 24° 58° (ENE) 03:01:27
POPSAT HIP 1 02 May 02:56:07 02:58:31 15° 308° (NW) 03:00:55 437.405
QB50P1 02 May 02:59:37 03:01:50 14° 309° (NW) 03:04:03 145.935-145.965
KKS-1 02 May 02:59:45 03:03:51 36° 63° (ENE) 03:07:59 437.445
DANDE 02 May 03:00:07 03:05:54 73° 73° (ENE) 03:13:24 436.750
BEESAT 3 02 May 03:00:11 03:04:11 79° 42° (NE) 03:08:09 437.485
BEESAT 2 02 May 03:04:56 03:08:56 62° 38° (NE) 03:12:54 435.950
ITUPSAT 1 02 May 03:05:11 03:09:45 45° 261° (W) 03:14:21 437.325
GONETS M04 02 May 03:09:54 03:18:17 44° 297° (WNW) 03:26:41
SWISSCUBE 02 May 03:15:42 03:20:01 34° 264° (W) 03:24:23 437.505
STARS 02 May 03:20:02 03:23:59 32° 61° (ENE) 03:27:57 437.465
AO-7 02 May 03:27:26 03:32:47 18° 82° (E) 03:38:06 29.400- 29.500
YUBILEINY 02 May 03:32:42 03:37:48 16° 34° (NE) 03:42:54 435.215
RS-15 02 May 03:34:30 03:46:10 54° 4° (N) 03:58:13 29.354- 29.394
BUGSAT 1 02 May 03:40:19 03:42:00 12° 311° (NW) 03:43:41 437.445
BEESAT 02 May 03:50:09 03:53:43 21° 270° (W) 03:57:19 436.000
ITAMSAT 1 02 May 03:51:42 03:56:39 43° 98° (E) 04:01:34 435.822/435.867
JAS-2 02 May 03:56:00 04:03:10 49° 300° (WNW) 04:10:38 435.910
Gurwin Techsat 1B 02 May 03:59:34 04:04:56 86° 288° (WNW) 04:10:16 435.225
Cosmos 2499 02 May 04:06:40 04:12:49 31° 301° (WNW) 04:19:09 435.465 / 435.565
CUSAT 1 02 May 04:12:01 04:17:42 30° 273° (W) 04:24:10 437.405
Oscar 19 02 May 04:15:30 04:20:14 36° 300° (WNW) 04:24:56 437.125/150
AIST 2 02 May 04:26:23 04:30:24 44° 32° (NNE) 04:34:23 435.215
MOZHAYETS 4 02 May 04:30:07 04:34:40 64° 258° (WSW) 04:39:13
CUBESAT XI-V 02 May 04:35:32 04:39:27 28° 60° (ENE) 04:43:24 437.345
KKS-1 02 May 04:36:15 04:40:26 38° 263° (W) 04:44:40 437.445
BEESAT 3 02 May 04:38:35 04:41:28 19° 242° (WSW) 04:44:20 437.485
BEESAT 2 02 May 04:43:11 04:46:33 26° 239° (WSW) 04:49:54 435.950
DANDE 02 May 04:43:28 04:48:33 30° 270° (W) 04:54:43 436.750
STARS 02 May 04:56:03 05:00:16 42° 261° (W) 05:04:32 437.465
GONETS M04 02 May 05:12:55 05:18:06 16° 326° (NW) 05:23:18
AO-7 02 May 05:19:01 05:27:19 65° 106° (ESE) 05:35:36 29.400- 29.500
STRAND 1 02 May 05:26:14 05:29:16 16° 48° (NE) 05:32:19 437.568
YUBILEINY 02 May 05:29:16 05:37:32 45° 63° (ENE) 05:45:48 435.215
ITAMSAT 1 02 May 05:31:19 05:36:08 40° 299° (WNW) 05:40:56 435.822/435.867
Gurwin Techsat 1B 02 May 05:40:21 05:44:15 21° 309° (NW) 05:48:08 435.225
JAS-2 02 May 05:41:56 05:46:40 18° 322° (NW) 05:51:32 435.910
HORYU 2 02 May 05:47:06 05:51:19 41° 98° (E) 05:55:30 437.375
RS-15 02 May 05:48:23 06:00:34 76° 35° (NE) 06:13:00 29.354- 29.394
Cosmos 2504 02 May 05:51:38 05:56:58 21° 49° (NE) 06:02:28 435.465 / 435.565
Cubesat XI-IV 02 May 05:58:37 05:59:04 10° 80° (E) 05:59:32 437.490
NOAA 15 02 May 05:58:45 06:01:47 15° 84° (E) 06:04:48 137.62
AIST 2 02 May 06:04:59 06:08:56 43° 233° (SW) 06:12:52 435.215
Cosmos 2499 02 May 06:08:23 06:09:00 10° 331° (NNW) 06:09:36 435.465 / 435.565
MOZHAYETS 4 02 May 06:11:43 06:12:47 11° 278° (W) 06:13:50
CUBESAT XI-V 02 May 06:12:08 06:16:37 53° 260° (W) 06:21:12 437.345
Cosmos 2491 02 May 06:22:28 06:29:55 32° 79° (E) 06:37:23 435.465 / 435.565
LilacSat-2 02 May 06:23:49 06:25:02 11° 85° (E) 06:26:13 437.200
PRISM 02 May 06:32:39 06:33:47 11° 48° (NE) 06:34:56 437.425
CUTE-I 02 May 06:51:28 06:55:56 26° 92° (E) 07:00:23 437.470
GOMX 1 02 May 06:51:46 06:55:28 18° 84° (E) 06:59:04 467.674
NOAA 18 02 May 06:54:48 06:59:44 34° 95° (E) 07:04:39 137.9125
STRAND 1 02 May 07:02:34 07:07:37 65° 69° (ENE) 07:12:41 437.568
BRITE-PL 02 May 07:11:28 07:16:52 42° 95° (E) 07:22:14 437.365/2234.400
AO-7 02 May 07:12:09 07:19:54 46° 309° (NW) 07:27:40 29.400- 29.500
ITAMSAT 1 02 May 07:13:03 07:14:21 11° 320° (NW) 07:15:40 435.822/435.867
HORYU 2 02 May 07:23:51 07:27:50 33° 298° (WNW) 07:31:47 437.375
YUBILEINY 02 May 07:26:16 07:34:46 60° 268° (W) 07:43:15 435.215
Cubesat XI-IV 02 May 07:35:11 07:40:25 53° 100° (E) 07:45:37 437.490
NOAA 15 02 May 07:37:09 07:42:30 75° 105° (ESE) 07:47:50 137.62
SO-50 02 May 07:39:26 07:43:00 20° 115° (ESE) 07:46:35 436.795
Cosmos 2504 02 May 07:44:31 07:51:54 67° 74° (ENE) 07:59:48 435.465 / 435.565
M-CUBED/EXP-1 PRIME 02 May 07:45:52 07:48:48 19° 95° (E) 07:51:34 437.505
LilacSat-2 02 May 07:56:09 08:00:01 85° 108° (ESE) 08:03:49 437.200
RS-15 02 May 08:01:12 08:12:48 53° 243° (WSW) 08:24:30 29.354- 29.394
CANX-2 02 May 08:01:43 08:02:51 11° 83° (E) 08:03:58 2200.000
PRISM 02 May 08:04:16 08:08:16 55° 68° (ENE) 08:12:19 437.425
AUBIESAT-1 02 May 08:05:15 08:08:32 23° 98° (E) 08:11:36 437.475
Cosmos 2491 02 May 08:17:06 08:25:59 80° 283° (WNW) 08:34:55 435.465 / 435.565
GOMX 1 02 May 08:28:48 08:34:23 84° 105° (ESE) 08:39:46 467.674
DOVE 4 02 May 08:30:12 08:35:21 51° 98° (E) 08:40:14 437.250
CUTE-I 02 May 08:31:09 08:36:26 64° 292° (WNW) 08:41:42 437.470
CUTE 1.7 + AOD 2 02 May 08:33:14 08:36:15 19° 89° (E) 08:39:16 437.475
TIGRISAT 02 May 08:33:57 08:35:32 12° 48° (NE) 08:37:05 435.000
NOAA 18 02 May 08:35:21 08:40:40 53° 296° (WNW) 08:45:57 137.9125
ISS 02 May 08:37:25 08:38:46 12° 144° (SE) 08:40:08 145.825
STRAND 1 02 May 08:43:06 08:47:15 25° 269° (W) 08:51:25 437.568
HO-68 02 May 08:48:20 08:54:46 34° 93° (E) 09:01:09 435.675
BRITE-PL 02 May 08:50:00 08:55:24 46° 295° (WNW) 09:00:48 437.365/2234.400
ANTELSAT 02 May 08:56:38 08:59:35 17° 53° (NE) 09:02:31 437.575/2403.000
SEEDS 02 May 09:02:01 09:05:33 26° 93° (E) 09:09:04 437.485
AO-7 02 May 09:05:17 09:10:50 20° 334° (NNW) 09:16:23 29.400- 29.500
COMPASS 1 02 May 09:07:23 09:10:39 22° 91° (E) 09:13:56 437.405
Cubesat XI-IV 02 May 09:15:36 09:20:21 34° 301° (WNW) 09:25:05 437.490
GONETS M04 02 May 09:16:48 09:22:13 17° 36° (NE) 09:27:38
NOAA 15 02 May 09:17:32 09:21:51 26° 306° (NW) 09:26:09 137.62
SO-50 02 May 09:17:59 09:22:56 85° 134° (SE) 09:27:51 436.795
M-CUBED/EXP-1 PRIME 02 May 09:19:41 09:23:52 64° 296° (WNW) 09:27:40 437.505
CINEMA 3 02 May 09:21:08 09:25:48 51° 99° (E) 09:30:14 145.822/145.860
YUBILEINY 02 May 09:24:46 09:29:42 17° 293° (WNW) 09:34:37 435.215
LilacSat-2 02 May 09:31:36 09:33:48 15° 305° (NW) 09:36:00 437.200
CANX-2 02 May 09:35:17 09:39:31 72° 102° (ESE) 09:43:44 2200.000
Cosmos 2504 02 May 09:38:23 09:44:54 34° 276° (W) 09:51:46 435.465 / 435.565
AAUSAT CUBESAT 2 02 May 09:38:52 09:42:42 34° 96° (E) 09:46:30 437.432
AUBIESAT-1 02 May 09:39:20 09:43:21 50° 299° (WNW) 09:47:02 437.475
PRISM 02 May 09:40:47 09:43:56 21° 268° (W) 09:47:06 437.425
NANOSAT C BR1 02 May 09:48:46 09:50:31 12° 50° (NE) 09:52:17 145.865
UNISAT 6 02 May 09:49:11 09:53:29 39° 65° (ENE) 09:57:43 437.425
Oscar 11 02 May 09:50:34 09:53:59 22° 91° (E) 09:57:22 145.826/435.025
FUNcube-1 02 May 10:00:51 10:04:14 23° 91° (E) 10:07:34 145.935
Cosmos 2499 02 May 10:00:55 10:04:42 14° 39° (NE) 10:08:35 435.465 / 435.565
TIGRISAT 02 May 10:06:49 10:11:18 52° 68° (ENE) 10:15:45 435.000
GOMX 1 02 May 10:07:33 10:11:53 24° 305° (NW) 10:16:09 467.674
DOVE 4 02 May 10:08:10 10:12:52 34° 299° (WNW) 10:17:24 437.250
CUTE 1.7 + AOD 2 02 May 10:08:21 10:12:33 65° 288° (WNW) 10:16:44 437.475
UWE-3 02 May 10:09:25 10:13:30 38° 97° (E) 10:17:27 435.000/436.395/437.385
ISS 02 May 10:11:34 10:14:33 33° 163° (SSE) 10:17:32 145.825
CUTE-I 02 May 10:12:21 10:15:37 17° 313° (NW) 10:18:51 437.470
CUBEBUG 2 02 May 10:14:49 10:19:12 58° 101° (E) 10:23:24 437.445
RS-15 02 May 10:15:47 10:22:13 16° 269° (W) 10:28:42 29.354- 29.394
Cosmos 2491 02 May 10:17:09 10:24:26 27° 310° (NW) 10:31:45 435.465 / 435.565
NOAA 18 02 May 10:17:20 10:20:16 15° 318° (NW) 10:23:12 137.9125
HUMSAT D 02 May 10:19:36 10:20:52 11° 84° (E) 10:22:09 437.325/437.525
BRITE-PL 02 May 10:30:03 10:32:40 13° 316° (NW) 10:35:17 437.365/2234.400
ANTELSAT 02 May 10:31:04 10:35:42 84° 74° (ENE) 10:40:17 437.575/2403.000
AIST 1 02 May 10:31:33 10:34:28 17° 58° (ENE) 10:37:22
HO-68 02 May 10:35:55 10:43:03 69° 295° (WNW) 10:50:08 435.675
SEEDS 02 May 10:37:27 10:41:29 46° 292° (WNW) 10:45:29 437.485
QB50P2 02 May 10:38:12 10:41:56 29° 61° (ENE) 10:45:40 145.880/145.840
DUCHIFAT 1 02 May 10:39:17 10:42:53 27° 61° (ENE) 10:46:29 145.980
POLYITAN 1 02 May 10:40:19 10:44:05 30° 62° (ENE) 10:47:50 437.675
ZACube-1 02 May 10:42:10 10:46:23 54° 100° (E) 10:50:30 437.345
COMPASS 1 02 May 10:42:28 10:46:32 53° 291° (WNW) 10:50:36 437.405
POPSAT HIP 1 02 May 10:43:08 10:46:55 31° 62° (ENE) 10:50:42 437.405
QB50P1 02 May 10:46:23 10:50:14 33° 63° (ENE) 10:54:04 145.935-145.965
JAS-2 02 May 10:48:48 10:52:58 18° 38° (NE) 10:57:26 435.910
M-CUBED/EXP-1 PRIME 02 May 10:55:24 10:57:38 14° 318° (NW) 10:59:46 437.505
AO-7 02 May 10:56:40 11:00:39 15° 1° (N) 11:04:39 29.400- 29.500
CINEMA 3 02 May 10:58:36 11:02:45 29° 300° (WNW) 11:06:42 145.822/145.860
SO-50 02 May 10:59:21 11:03:55 36° 338° (NNW) 11:08:25 436.795
DELFI C3 02 May 10:59:55 11:03:48 49° 100° (E) 11:07:40 145.870
CANX-2 02 May 11:11:56 11:14:58 19° 303° (WNW) 11:17:59 2200.000
GONETS M04 02 May 11:13:26 11:21:54 47° 64° (ENE) 11:30:14
AAUSAT CUBESAT 2 02 May 11:14:27 11:18:12 34° 296° (WNW) 11:21:57 437.432
AUBIESAT-1 02 May 11:15:27 11:16:55 12° 321° (NW) 11:18:21 437.475
NANOSAT C BR1 02 May 11:21:15 11:25:28 61° 70° (ENE) 11:29:42 145.865
BUGSAT 1 02 May 11:24:33 11:28:27 36° 64° (ENE) 11:32:23 437.445
UNISAT 6 02 May 11:26:00 11:30:16 35° 264° (W) 11:34:29 437.425
Oscar 11 02 May 11:26:13 11:30:27 56° 291° (WNW) 11:34:40 145.826/435.025
AISAT 02 May 11:31:53 11:33:18 11° 83° (E) 11:34:42 437.250
FUNcube-1 02 May 11:36:40 11:40:49 52° 292° (WNW) 11:44:53 145.935
TIGRISAT 02 May 11:44:19 11:48:15 27° 267° (W) 11:52:09 435.000
ESTCUBE 1 02 May 11:45:30 11:48:45 19° 89° (E) 11:52:00 437.505/2401.250
CUTE 1.7 + AOD 2 02 May 11:45:50 11:47:39 13° 309° (NW) 11:49:27 437.475
UWE-3 02 May 11:46:03 11:49:56 32° 297° (WNW) 11:53:42 435.000/436.395/437.385
ISS 02 May 11:47:31 11:50:41 46° 182° (S) 11:53:50 145.825
CUBEBUG 2 02 May 11:51:58 11:55:31 24° 302° (WNW) 11:58:58 437.445
Cosmos 2499 02 May 11:53:03 12:00:11 44° 66° (ENE) 12:07:48 435.465 / 435.565
HUMSAT D 02 May 11:53:08 11:57:17 78° 105° (ESE) 12:01:21 437.325/437.525
AIST 1 02 May 12:08:16 12:12:43 85° 258° (WSW) 12:17:09
CUBEBUG 1 02 May 12:09:33 12:13:06 23° 91° (E) 12:16:37 437.445
ANTELSAT 02 May 12:10:01 12:13:01 17° 273° (W) 12:16:00 437.575/2403.000
Gurwin Techsat 1B 02 May 12:11:31 12:14:29 15° 45° (NE) 12:17:27 435.225
QB50P2 02 May 12:13:30 12:17:37 44° 261° (W) 12:21:46 145.880/145.840
DUCHIFAT 1 02 May 12:14:15 12:18:24 49° 260° (W) 12:22:35 145.980
POLYITAN 1 02 May 12:15:39 12:19:47 43° 262° (W) 12:23:54 437.675
POPSAT HIP 1 02 May 12:18:31 12:22:37 42° 262° (W) 12:26:44 437.405
ZACube-1 02 May 12:18:59 12:22:25 24° 301° (WNW) 12:25:48 437.345
COMPASS 1 02 May 12:20:23 12:21:15 11° 311° (NW) 12:22:07 437.405
Oscar 19 02 May 12:21:43 12:26:09 29° 57° (ENE) 12:30:37 437.125/150
QB50P1 02 May 12:21:56 12:25:58 39° 263° (W) 12:30:01 145.935-145.965
Cosmos 2491 02 May 12:22:42 12:25:29 12° 342° (NNW) 12:28:16 435.465 / 435.565
HO-68 02 May 12:24:20 12:29:43 24° 318° (NW) 12:35:05 435.675
JAS-2 02 May 12:30:26 12:36:28 52° 62° (ENE) 12:43:19 435.910
50 SAT 02 May 12:33:38 12:37:04 37° 98° (E) 12:40:29 437.505
DX 1 02 May 12:34:12 12:38:10 32° 96° (E) 12:42:06 434.975-435.025
VELOX 1 02 May 12:34:18 12:38:28 35° 97° (E) 12:42:34 145.980
DELFI C3 02 May 12:35:15 12:38:28 24° 299° (WNW) 12:41:41 145.870
SO-50 02 May 12:41:25 12:45:34 27° 2° (N) 12:49:40 436.795
UKube-1 02 May 12:42:15 12:46:09 31° 95° (E) 12:50:03 .
AO-7 02 May 12:44:46 12:50:33 22° 29° (NNE) 12:56:20 29.400- 29.500
NANOSAT C BR1 02 May 12:58:21 13:01:36 21° 270° (W) 13:04:50 145.865
BUGSAT 1 02 May 12:59:58 13:03:51 34° 264° (W) 13:07:47 437.445
AO-85 02 May 13:00:31 13:04:24 20° 113° (ESE) 13:08:14 145.980
Oscar 11 02 May 13:04:16 13:05:45 12° 311° (NW) 13:07:12 145.826/435.025
AISAT 02 May 13:06:09 13:10:40 69° 103° (ESE) 13:15:08 437.250
GONETS M04 02 May 13:10:31 13:19:02 57° 269° (W) 13:27:28
SPROUT 02 May 13:13:36 13:17:36 36° 96° (E) 13:21:34 437.525
FUNcube-1 02 May 13:15:13 13:16:09 11° 312° (NW) 13:17:06 145.935
ESTCUBE 1 02 May 13:21:32 13:26:05 72° 288° (WNW) 13:30:36 437.505/2401.250
ISS 02 May 13:23:56 13:26:45 27° 202° (SSW) 13:29:35 145.825
HUMSAT D 02 May 13:29:42 13:32:27 18° 304° (NW) 13:35:10 437.325/437.525
ITAMSAT 1 02 May 13:38:38 13:42:59 28° 56° (NE) 13:47:20 435.822/435.867
CUBEBUG 1 02 May 13:45:21 13:49:45 59° 291° (WNW) 13:54:07 437.445
Cosmos 2499 02 May 13:46:16 13:53:33 56° 268° (W) 14:01:25 435.465 / 435.565
AIST 1 02 May 13:47:31 13:49:36 13° 280° (W) 13:51:42
Gurwin Techsat 1B 02 May 13:48:15 13:53:28 58° 67° (ENE) 13:58:42 435.225
TISAT 1 02 May 13:50:42 13:54:25 28° 94° (E) 13:58:05 437.305
Oscar 19 02 May 14:00:04 14:05:12 61° 258° (WSW) 14:10:24 437.125/150
BEESAT 02 May 14:05:53 14:07:07 11° 82° (E) 14:08:20 436.000
50 SAT 02 May 14:07:41 14:10:47 26° 297° (WNW) 14:13:52 437.505
DX 1 02 May 14:10:20 14:14:29 41° 296° (WNW) 14:18:37 434.975-435.025
VELOX 1 02 May 14:10:49 14:14:59 38° 296° (WNW) 14:19:07 145.980
HO-68 02 May 14:13:30 14:15:02 11° 344° (NNW) 14:16:33 435.675
JAS-2 02 May 14:15:53 14:21:44 43° 266° (W) 14:28:22 435.910
UKube-1 02 May 14:18:14 14:22:20 41° 295° (WNW) 14:26:24 .
SO-50 02 May 14:22:33 14:27:09 41° 26° (NNE) 14:31:38 436.795
Cosmos 2491 02 May 14:25:17 14:27:58 11° 18° (NNE) 14:30:39 435.465 / 435.565
O/OREOS (USA 219) 02 May 14:29:41 14:30:44 11° 96° (E) 14:31:47 437.305
AO-7 02 May 14:33:45 14:41:37 50° 53° (NE) 14:49:31 29.400- 29.500
AO-85 02 May 14:38:48 14:44:16 77° 134° (SE) 14:49:35 145.980
AISAT 02 May 14:43:18 14:46:46 22° 304° (WNW) 14:50:13 437.250
SPROUT 02 May 14:49:38 14:53:35 35° 296° (WNW) 14:57:30 437.525
ITUPSAT 1 02 May 14:58:18 15:02:27 28° 94° (E) 15:06:34 437.325
ESTCUBE 1 02 May 14:59:37 15:02:11 15° 309° (NW) 15:04:44 437.505/2401.250
SWISSCUBE 02 May 15:07:59 15:12:25 37° 97° (E) 15:16:49 437.505
GONETS M04 02 May 15:09:12 15:13:52 16° 294° (WNW) 15:18:30
ITAMSAT 1 02 May 15:16:59 15:22:08 65° 257° (WSW) 15:27:19 435.822/435.867
HORYU 2 02 May 15:17:14 15:20:15 18° 53° (NE) 15:23:15 437.375
CUBEBUG 1 02 May 15:23:18 15:25:12 13° 311° (NW) 15:27:07 437.445
TISAT 1 02 May 15:26:12 15:30:14 43° 294° (WNW) 15:34:14 437.305
Gurwin Techsat 1B 02 May 15:29:09 15:33:46 29° 267° (W) 15:38:25 435.225
BEESAT 02 May 15:41:10 15:45:54 62° 102° (ESE) 15:50:38 436.000
Cosmos 2499 02 May 15:41:29 15:45:05 14° 290° (WNW) 15:48:47 435.465 / 435.565
CUSAT 1 02 May 15:42:04 15:45:41 40° 92° (E) 15:50:22 437.405
Oscar 19 02 May 15:43:48 15:45:39 12° 279° (W) 15:47:29 437.125/150
PCSat 02 May 15:49:04 15:52:54 20° 108° (ESE) 15:56:45 145.827
NOAA 15 02 May 15:49:16 15:51:35 13° 42° (NE) 15:53:54 137.62
Cubesat XI-IV 02 May 15:51:05 15:51:24 10° 37° (NE) 15:51:44 437.490
SO-50 02 May 16:03:10 16:07:57 65° 229° (SW) 16:12:33 436.795
O/OREOS (USA 219) 02 May 16:04:40 16:09:13 62° 116° (ESE) 16:13:46 437.305
MOZHAYETS 4 02 May 16:18:27 16:21:44 19° 89° (E) 16:25:00
DANDE 02 May 16:19:28 16:22:21 33° 92° (E) 16:26:00 436.750
KKS-1 02 May 16:19:51 16:23:39 26° 93° (E) 16:27:24 437.445
AO-85 02 May 16:20:06 16:25:15 40° 335° (NNW) 16:30:09 145.980
Cosmos 2491 02 May 16:21:48 16:29:03 27° 50° (NE) 16:36:15 435.465 / 435.565
AO-7 02 May 16:26:15 16:34:22 58° 256° (WSW) 16:42:35 29.400- 29.500
GOMX 1 02 May 16:33:28 16:34:15 10° 39° (NE) 16:35:01 467.674
ITUPSAT 1 02 May 16:35:55 16:40:33 52° 294° (WNW) 16:45:11 437.325
STARS 02 May 16:38:26 16:41:55 22° 91° (E) 16:45:23 437.465
CUTE-I 02 May 16:42:31 16:46:18 20° 50° (NE) 16:50:03 437.470
SWISSCUBE 02 May 16:45:49 16:50:18 40° 296° (WNW) 16:54:44 437.505
NOAA 18 02 May 16:49:03 16:53:39 28° 54° (NE) 16:58:15 137.9125
HORYU 2 02 May 16:51:46 16:56:15 90° 253° (WSW) 17:00:46 437.375
BRITE-PL 02 May 16:52:50 16:56:28 20° 51° (NE) 17:00:16 437.365/2234.400
ITAMSAT 1 02 May 17:00:28 17:02:39 13° 277° (W) 17:04:52 435.822/435.867
M-CUBED/EXP-1 PRIME 02 May 17:04:58 17:08:14 19° 47° (NE) 17:11:23 437.505
LilacSat-2 02 May 17:12:02 17:14:40 18° 58° (ENE) 17:17:18 437.200
BEESAT 02 May 17:19:29 17:23:24 26° 303° (WNW) 17:27:19 436.000
AUBIESAT-1 02 May 17:23:52 17:27:20 21° 49° (NE) 17:30:43 437.475
CUSAT 1 02 May 17:24:26 17:28:02 30° 302° (WNW) 17:32:37 437.405
NOAA 15 02 May 17:25:11 17:30:13 47° 63° (ENE) 17:35:18 137.62
Cubesat XI-IV 02 May 17:25:18 17:30:06 35° 59° (ENE) 17:34:55 437.490
PCSat 02 May 17:30:09 17:35:35 84° 129° (SE) 17:41:04 145.827
HO-68 02 May 17:40:02 17:44:47 19° 36° (NE) 17:49:32 435.675
O/OREOS (USA 219) 02 May 17:44:58 17:48:59 29° 318° (NW) 17:53:02 437.305
SO-50 02 May 17:45:10 17:47:34 14° 249° (WSW) 17:49:55 436.795
MOZHAYETS 4 02 May 17:54:51 17:59:25 73° 289° (WNW) 18:03:59
KKS-1 02 May 17:56:07 18:00:29 51° 293° (WNW) 18:04:49 437.445
CUBESAT XI-V 02 May 18:01:30 18:05:22 25° 91° (E) 18:09:13 437.345
AO-85 02 May 18:02:21 18:06:55 28° 358° (N) 18:11:14 145.980
DANDE 02 May 18:02:37 18:05:25 24° 302° (WNW) 18:08:50 436.750
DOVE 4 02 May 18:05:57 18:10:02 24° 55° (NE) 18:14:11 437.250
GOMX 1 02 May 18:06:10 18:10:53 36° 61° (ENE) 18:15:49 467.674
STARS 02 May 18:14:17 18:18:41 59° 290° (WNW) 18:23:00 437.465
ITUPSAT 1 02 May 18:15:28 18:17:26 12° 315° (NW) 18:19:23 437.325
Cosmos 2491 02 May 18:18:38 18:27:33 79° 76° (ENE) 18:36:21 435.465 / 435.565
CUTE-I 02 May 18:20:19 18:25:39 81° 71° (ENE) 18:31:00 437.470
AO-7 02 May 18:24:38 18:29:09 15° 280° (W) 18:33:41 29.400- 29.500
NOAA 18 02 May 18:28:25 18:33:56 71° 255° (WSW) 18:39:27 137.9125
BRITE-PL 02 May 18:29:11 18:34:10 83° 73° (ENE) 18:39:35 437.365/2234.400
HORYU 2 02 May 18:30:56 18:33:30 15° 273° (W) 18:36:04 437.375
BEESAT 3 02 May 18:37:19 18:38:42 12° 112° (ESE) 18:40:06 437.485
M-CUBED/EXP-1 PRIME 02 May 18:37:27 18:42:11 79° 66° (ENE) 18:46:48 437.505
YUBILEINY 02 May 18:40:06 18:47:49 37° 82° (E) 18:55:32 435.215
LilacSat-2 02 May 18:44:42 18:48:35 70° 258° (WSW) 18:52:29 437.200
CINEMA 3 02 May 18:53:33 18:57:21 22° 55° (NE) 19:01:08 145.822/145.860
AUBIESAT-1 02 May 18:56:42 19:01:22 85° 248° (WSW) 19:05:55 437.475
CANX-2 02 May 19:00:21 19:03:31 21° 58° (ENE) 19:06:40 2200.000
AAUSAT CUBESAT 2 02 May 19:03:52 19:05:05 11° 50° (NE) 19:06:19 437.432
Cubesat XI-IV 02 May 19:04:52 19:10:03 51° 260° (W) 19:15:17 437.490
NOAA 15 02 May 19:05:18 19:10:10 36° 264° (W) 19:15:05 137.62
STRAND 1 02 May 19:07:20 19:09:39 13° 83° (E) 19:11:59 437.568
PCSat 02 May 19:14:35 19:19:34 35° 333° (NNW) 19:24:33 145.827
HO-68 02 May 19:24:13 19:31:08 54° 60° (ENE) 19:38:03 435.675
O/OREOS (USA 219) 02 May 19:28:13 19:29:56 12° 342° (NNW) 19:31:40 437.305
CUTE 1.7 + AOD 2 02 May 19:32:27 19:36:13 33° 64° (ENE) 19:40:00 437.475
MOZHAYETS 4 02 May 19:33:17 19:35:52 15° 309° (NW) 19:38:28
KKS-1 02 May 19:34:38 19:36:08 12° 314° (NW) 19:37:38 437.445
CUBESAT XI-V 02 May 19:38:30 19:43:06 58° 291° (WNW) 19:47:43 437.345
UWE-3 02 May 19:38:48 19:41:30 16° 53° (NE) 19:44:10 435.000/436.395/437.385
DOVE 4 02 May 19:41:58 19:47:10 83° 256° (WSW) 19:52:32 437.250
AO-85 02 May 19:43:48 19:48:39 38° 23° (NNE) 19:53:07 145.980
GOMX 1 02 May 19:43:50 19:48:50 49° 263° (W) 19:54:07 467.674
CUBEBUG 2 02 May 19:44:13 19:47:46 22° 57° (ENE) 19:51:17 437.445
STARS 02 May 19:52:15 19:54:12 13° 312° (NW) 19:56:08 437.465
SEEDS 02 May 20:00:20 20:04:18 44° 67° (ENE) 20:08:17 437.485
CUTE-I 02 May 20:02:24 20:06:22 21° 272° (W) 20:10:21 437.470
COMPASS 1 02 May 20:04:44 20:08:33 37° 65° (ENE) 20:12:23 437.405
BRITE-PL 02 May 20:09:46 20:13:24 20° 275° (W) 20:17:15 437.365/2234.400
ZACube-1 02 May 20:09:56 20:13:06 19° 56° (NE) 20:16:15 437.345
BEESAT 3 02 May 20:11:45 20:15:40 65° 133° (SE) 20:19:37 437.485
NOAA 18 02 May 20:12:35 20:15:37 15° 276° (W) 20:18:38 137.9125
M-CUBED/EXP-1 PRIME 02 May 20:13:45 20:17:12 20° 264° (W) 20:20:35 437.505
Cosmos 2491 02 May 20:16:08 20:23:37 33° 281° (W) 20:31:04 435.465 / 435.565
BEESAT 2 02 May 20:18:13 20:22:05 50° 129° (SE) 20:25:59 435.950
DELFI C3 02 May 20:20:22 20:22:16 13° 53° (NE) 20:24:09 145.870
RS-15 02 May 20:27:54 20:33:44 16° 91° (E) 20:39:41 29.354- 29.394
CINEMA 3 02 May 20:28:55 20:33:58 83° 255° (WSW) 20:39:00 145.822/145.860
Cosmos 2504 02 May 20:32:14 20:38:52 42° 87° (E) 20:45:31 435.465 / 435.565
AUBIESAT-1 02 May 20:33:39 20:36:27 16° 266° (W) 20:39:12 437.475
CANX-2 02 May 20:34:49 20:39:01 66° 258° (WSW) 20:43:13 2200.000
YUBILEINY 02 May 20:35:26 20:44:09 70° 287° (WNW) 20:52:53 435.215
AAUSAT CUBESAT 2 02 May 20:35:44 20:39:46 58° 70° (ENE) 20:43:50 437.432
STRAND 1 02 May 20:44:43 20:49:49 68° 103° (ESE) 20:54:56 437.568
Oscar 11 02 May 20:51:49 20:55:52 41° 66° (ENE) 20:59:57 145.826/435.025
PCSat 02 May 21:00:07 21:04:27 23° 358° (N) 21:08:47 145.827
FUNcube-1 02 May 21:02:38 21:06:53 44° 67° (ENE) 21:11:06 145.935
CUTE 1.7 + AOD 2 02 May 21:08:08 21:12:03 37° 263° (W) 21:16:00 437.475
HO-68 02 May 21:12:14 21:19:03 46° 262° (W) 21:25:54 435.675
UWE-3 02 May 21:12:41 21:17:19 76° 72° (ENE) 21:21:51 435.000/436.395/437.385
PRISM 02 May 21:14:00 21:17:48 33° 97° (E) 21:21:36 437.425
HUMSAT D 02 May 21:16:44 21:19:57 22° 59° (ENE) 21:23:10 437.325/437.525
CUBESAT XI-V 02 May 21:17:28 21:19:37 13° 312° (NW) 21:21:46 437.345
CUBEBUG 2 02 May 21:19:14 21:23:59 75° 256° (WSW) 21:28:38 437.445
DOVE 4 02 May 21:22:21 21:25:42 17° 276° (W) 21:29:06 437.250
AO-85 02 May 21:24:32 21:29:36 78° 228° (SW) 21:34:11 145.980
SEEDS 02 May 21:36:38 21:40:12 27° 267° (W) 21:43:47 437.485
COMPASS 1 02 May 21:40:29 21:44:12 31° 265° (W) 21:47:55 437.405
ZACube-1 02 May 21:44:24 21:48:57 81° 257° (WSW) 21:53:23 437.345
AIST 2 02 May 21:46:44 21:50:31 36° 124° (SE) 21:54:21 435.215
BEESAT 3 02 May 21:50:03 21:53:40 33° 333° (NNW) 21:57:19 437.485
DELFI C3 02 May 21:52:34 21:56:30 77° 73° (ENE) 22:00:28 145.870
BEESAT 2 02 May 21:56:19 22:00:05 39° 330° (NNW) 22:03:53 435.950
DX 1 02 May 22:02:55 22:05:10 14° 50° (NE) 22:07:24 434.975-435.025
VELOX 1 02 May 22:04:19 22:06:53 15° 51° (NE) 22:09:28 145.980
CINEMA 3 02 May 22:08:48 22:11:52 16° 275° (W) 22:14:56 145.822/145.860
UKube-1 02 May 22:10:11 22:12:19 14° 49° (NE) 22:14:26 .
AAUSAT CUBESAT 2 02 May 22:12:33 22:15:38 20° 270° (W) 22:18:45 437.432
ANTELSAT 02 May 22:18:11 22:19:06 11° 82° (E) 22:20:01 437.575/2403.000
STRAND 1 02 May 22:24:27 22:28:39 26° 304° (NW) 22:32:51 437.568
Cosmos 2504 02 May 22:25:10 22:32:09 52° 291° (WNW) 22:39:12 435.465 / 435.565
Oscar 11 02 May 22:28:19 22:32:09 30° 266° (W) 22:35:59 145.826/435.025
RS-15 02 May 22:32:10 22:43:01 53° 117° (ESE) 22:54:27 29.354- 29.394
AISAT 02 May 22:34:57 22:38:37 25° 58° (ENE) 22:42:18 437.250
YUBILEINY 02 May 22:36:09 22:42:51 24° 314° (NW) 22:49:36 435.215
FUNcube-1 02 May 22:39:21 22:43:17 30° 266° (W) 22:47:12 145.935
SPROUT 02 May 22:40:42 22:42:50 13° 51° (NE) 22:44:56 437.525
PCSat 02 May 22:44:34 22:49:26 31° 24° (NNE) 22:54:16 145.827
PRISM 02 May 22:49:20 22:53:10 36° 296° (WNW) 22:57:00 437.425
O/OREOS (USA 219) 02 May 22:49:29 22:52:50 20° 34° (NNE) 22:56:10 437.305
UWE-3 02 May 22:51:03 22:54:17 19° 272° (W) 22:57:29 435.000/436.395/437.385
HUMSAT D 02 May 22:51:06 22:55:17 61° 258° (WSW) 22:59:26 437.325/437.525
ESTCUBE 1 02 May 22:51:31 22:55:42 40° 64° (ENE) 22:59:55 437.505/2401.250
CUBEBUG 2 02 May 22:59:11 23:01:24 13° 276° (W) 23:03:36 437.445
AO-85 02 May 23:06:11 23:09:16 17° 249° (WSW) 23:12:12 145.980
HO-68 02 May 23:07:58 23:08:47 10° 285° (WNW) 23:09:36 435.675
UNISAT 6 02 May 23:10:19 23:14:12 30° 94° (E) 23:18:00 437.425
CUBEBUG 1 02 May 23:12:01 23:16:11 44° 66° (ENE) 23:20:25 437.445
TISAT 1 02 May 23:16:58 23:18:12 11° 48° (NE) 23:19:25 437.305
50 SAT 02 May 23:18:53 23:22:27 52° 70° (ENE) 23:26:01 437.505
ZACube-1 02 May 23:23:44 23:25:57 13° 275° (W) 23:28:08 437.345
AIST 2 02 May 23:24:54 23:28:57 50° 326° (NW) 23:33:01 435.215
TIGRISAT 02 May 23:27:51 23:31:59 40° 97° (E) 23:36:02 435.000
BEESAT 3 02 May 23:29:23 23:32:23 20° 357° (N) 23:35:23 437.485
DELFI C3 02 May 23:29:41 23:31:56 15° 273° (W) 23:34:11 145.870
